Вернуться в каталог

STARLINK-3780

АктивенСвязьVLEO
NORAD 52278·PAYLOAD·🇺🇸 United States

Запущен Apr 21, 2022 с Cape Canaveral Space Force Station

Loading…

Ближайшие Пролёты (ближайшие 24 часа)

TLE

СвежийSource: CelesTrak SupGP

Эпоха: Sep 15, 2026, 02:50 UTC

1 52278C 22041T   26258.11854167  .00050881  00000+0  14555-2 0  2580
2 52278  53.1588 332.5614 0001197  78.2629 278.4009 15.35378304    12

Отслеживайте STARLINK-3780 в реальном времени с AllMySat

Download on the App Store